AB4KN Weather Reports


Display with metric or nautical units.
time (UTC)temp
F
wind
direction
speed
MPH
gust
MPH
rain 1hr
in
rain 24hr
in
rain mn
in
humidity
%
barometer
mb
20260905120410 75 249 0.0 0.0 0.00 0.00 0.00 88 1020.3
20260905115905 75 249 0.0 0.0 0.00 0.00 0.00 88 1020.5
20260905115404 75 249 0.0 0.0 0.00 0.00 0.00 88 1020.4
20260905114859 75 249 0.0 0.0 0.00 0.00 0.00 87 1020.3
20260905114358 75 249 0.0 0.0 0.00 0.00 0.00 87 1020.3
20260905113858 75 249 0.0 0.0 0.00 0.00 0.00 87 1020.4
20260905113353 75 249 0.0 0.0 0.00 0.00 0.00 87 1020.4
20260905112848 75 249 0.0 0.0 0.00 0.00 0.00 87 1020.1
20260905112344 75 249 0.0 0.0 0.00 0.00 0.00 87 1020.3
20260905111839 75 249 0.0 0.0 0.00 0.00 0.00 87 1020.0
20260905111339 75 249 0.0 0.0 0.00 0.00 0.00 87 1020.0
20260905110838 75 249 0.0 0.0 0.00 0.00 0.00 87 1019.9
20260905110332 75 249 0.0 0.0 0.00 0.00 0.00 87 1019.9
20260905105828 75 249 0.0 0.0 0.00 0.00 0.00 87 1020.1
20260905105327 75 249 0.0 0.0 0.00 0.00 0.00 87 1020.2
20260905104821 75 248 0.0 0.0 0.00 0.00 0.00 87 1019.9
20260905104318 75 248 0.0 0.0 0.00 0.00 0.00 87 1020.0
20260905103817 75 248 0.0 0.0 0.00 0.00 0.00 87 1019.8
20260905103313 75 248 0.0 0.0 0.00 0.00 0.00 87 1019.8
20260905102809 75 248 0.0 0.0 0.00 0.00 0.00 87 1019.9
20260905102306 75 248 0.0 0.0 0.00 0.00 0.00 87 1019.8
20260905101804 75 248 0.0 0.0 0.00 0.00 0.00 87 1019.8
20260905101303 75 249 0.0 0.0 0.00 0.00 0.00 87 1019.7
20260905100757 75 249 0.0 0.0 0.00 0.00 0.00 87 1019.8
20260905100254 75 250 0.0 0.0 0.00 0.00 0.00 87 1019.7
20260905095753 75 250 0.0 0.0 0.00 0.00 0.00 87 1019.7
20260905095247 75 250 0.0 0.0 0.00 0.00 0.00 86 1019.5
20260905094742 75 250 0.0 0.0 0.00 0.00 0.00 87 1019.7
20260905094238 75 250 0.0 0.0 0.00 0.00 0.00 87 1019.7
20260905093736 75 250 0.0 0.0 0.00 0.00 0.00 87 1019.6
20260905093233 75 250 0.0 0.0 0.00 0.00 0.00 86 1019.7
20260905092728 75 250 0.0 0.0 0.00 0.00 0.00 86 1019.5
20260905092223 75 250 0.0 0.0 0.00 0.00 0.00 86 1019.5
20260905091723 75 250 0.0 0.0 0.00 0.00 0.00 86 1019.6
20260905091218 76 250 0.0 0.0 0.00 0.00 0.00 86 1019.5
20260905090717 76 250 0.0 0.0 0.00 0.00 0.00 86 1019.7
20260905090213 76 250 0.0 0.0 0.00 0.00 0.00 86 1019.7
20260905085711 76 250 0.0 0.0 0.00 0.00 0.00 86 1019.6
20260905085207 76 250 0.0 0.0 0.00 0.00 0.00 86 1019.7
20260905084701 76 250 0.0 0.0 0.00 0.00 0.00 85 1019.5
20260905084201 76 250 0.0 0.0 0.00 0.00 0.00 85 1019.5
20260905083655 76 250 0.0 0.0 0.00 0.00 0.00 85 1019.5
20260905083152 77 250 0.0 0.0 0.00 0.00 0.00 85 1019.8
20260905082648 77 249 0.0 0.0 0.00 0.00 0.00 85 1019.6
20260905082143 77 249 0.0 0.0 0.00 0.00 0.00 85 1019.7
20260905081637 77 249 0.0 0.0 0.00 0.00 0.00 85 1019.6
20260905081132 77 249 0.0 0.0 0.00 0.00 0.00 84 1019.6
20260905080627 77 249 0.0 0.0 0.00 0.00 0.00 85 1019.6
20260905080121 77 250 0.0 0.0 0.00 0.00 0.00 85 1019.7
20260905075620 77 249 0.0 0.0 0.00 0.00 0.00 85 1019.5
20260905075120 77 250 0.0 0.0 0.00 0.00 0.00 84 1019.5
20260905074619 77 265 0.0 0.0 0.00 0.00 0.00 84 1019.6
20260905074115 77 265 0.0 0.0 0.00 0.00 0.00 84 1019.5
20260905073611 77 263 0.0 0.0 0.00 0.00 0.00 85 1019.4
20260905073106 77 262 0.0 0.0 0.00 0.00 0.00 84 1019.4
20260905072605 77 259 0.0 0.0 0.00 0.00 0.00 84 1019.5
20260905072101 77 249 0.0 0.0 0.00 0.00 0.00 84 1019.1
20260905071557 77 249 0.0 0.0 0.00 0.00 0.00 84 1018.9
20260905071057 77 249 0.0 0.0 0.00 0.00 0.00 84 1019.3
20260905070553 77 244 0.0 0.0 0.00 0.00 0.00 84 1018.8
20260905070049 77 249 0.0 0.0 0.00 0.00 0.00 83 1019.3
20260905065546 77 250 0.0 0.0 0.00 0.00 0.00 83 1019.3
20260905065041 77 250 0.0 0.0 0.00 0.00 0.00 83 1019.3
20260905064536 77 272 0.0 0.0 0.00 0.00 0.00 85 1019.5
20260905064031 78 265 0.0 0.0 0.00 0.00 0.00 84 1019.6
20260905063530 78 249 0.0 0.0 0.00 0.00 0.00 83 1019.6
20260905063027 78 249 0.0 0.0 0.00 0.00 0.00 82 1019.9
20260905062526 78 249 0.0 0.0 0.00 0.00 0.00 82 1019.5
20260905062021 78 249 0.0 0.0 0.00 0.00 0.00 81 1019.7
20260905061517 78 249 0.0 0.0 0.00 0.00 0.00 81 1019.9
20260905061015 78 249 0.0 0.0 0.00 0.00 0.00 81 1019.9
20260905060512 78 248 0.0 0.0 0.00 0.00 0.00 81 1019.9
20260905060007 79 249 0.0 0.0 0.00 0.00 0.00 79 1019.9
20260905055505 79 249 0.0 0.0 0.00 0.00 0.00 78 1020.0
20260905055000 79 248 0.0 0.0 0.00 0.00 0.00 78 1020.0
20260905054456 79 234 0.0 0.0 0.00 0.00 0.00 78 1020.1
20260905053951 79 247 0.0 0.0 0.00 0.00 0.00 77 1020.1
20260905053446 79 240 0.0 0.0 0.00 0.00 0.00 77 1020.3
20260905052942 79 247 0.0 0.0 0.00 0.00 0.00 76 1020.1
20260905052441 80 247 0.0 0.0 0.00 0.00 0.00 76 1020.1
20260905051940 80 247 0.0 0.0 0.00 0.00 0.00 75 1020.1
20260905051436 80 247 0.0 0.0 0.00 0.00 0.00 74 1019.9
20260905050934 80 254 0.0 0.0 0.00 0.00 0.00 73 1020.3
20260905050429 80 254 0.0 0.0 0.00 0.00 0.00 73 1020.3
20260905045925 80 165 0.0 0.0 0.00 0.00 0.00 72 1020.3
20260905045420 80 248 0.0 0.0 0.00 0.00 0.00 71 1020.5
20260905044915 80 249 0.0 0.0 0.00 0.00 0.00 70 1020.5
20260905044410 80 247 0.0 0.0 0.00 0.00 0.00 70 1020.3
20260905043909 80 250 0.0 0.0 0.00 0.00 0.00 71 1020.2
20260905043404 80 250 0.0 0.0 0.00 0.00 0.00 70 1020.3
20260905042904 80 251 0.0 0.0 0.00 0.00 0.00 72 1020.4
20260905042359 80 251 0.0 0.0 0.00 0.00 0.00 73 1020.3
20260905041853 80 251 0.0 0.0 0.00 0.00 0.00 73 1020.2
20260905041349 80 251 0.0 0.0 0.00 0.00 0.00 73 1020.2
20260905040844 80 251 0.0 0.0 0.00 0.00 0.00 73 1020.1
20260905040342 80 251 0.0 0.0 0.00 0.00 0.00 73 1020.2
20260905035836 80 251 0.0 0.0 0.00 0.00 0.00 72 1020.1
20260905035332 80 251 0.0 0.0 0.00 0.00 0.00 72 1020.0
20260905034828 80 251 0.0 0.0 0.00 0.00 0.00 72 1020.2
20260905034324 80 251 0.0 0.0 0.00 0.00 0.00 72 1020.3
20260905033822 81 251 0.0 0.0 0.00 0.00 0.00 71 1020.3
20260905033318 81 251 0.0 0.0 0.00 0.00 0.00 69 1020.2
20260905032817 82 251 0.0 0.0 0.00 0.00 0.00 68 1020.3
20260905032313 82 251 0.0 0.0 0.00 0.00 0.00 68 1020.3
20260905031808 82 251 0.0 0.0 0.00 0.00 0.00 67 1020.3
20260905031304 82 251 0.0 0.0 0.00 0.00 0.00 67 1020.2
20260905030759 82 251 0.0 0.0 0.00 0.00 0.00 67 1020.5
20260905030254 82 251 0.0 0.0 0.00 0.00 0.00 67 1020.7
20260905025748 82 251 0.0 0.0 0.00 0.00 0.00 67 1020.6
20260905025244 82 251 0.0 0.0 0.00 0.00 0.00 68 1020.8
20260905024739 83 251 0.0 0.0 0.00 0.00 0.00 68 1020.6
20260905024235 83 251 0.0 0.0 0.00 0.00 0.00 67 1020.8
20260905023735 83 251 0.0 0.0 0.00 0.00 0.00 66 1020.8
20260905023230 84 251 0.0 0.0 0.00 0.00 0.00 65 1020.9
20260905022730 83 251 0.0 0.0 0.00 0.00 0.00 64 1020.9
20260905022225 83 251 0.0 0.0 0.00 0.00 0.00 66 1021.0
20260905021719 84 251 0.0 0.0 0.00 0.00 0.00 66 1020.9
20260905021214 84 251 0.0 0.0 0.00 0.00 0.00 65 1020.7
20260905020708 84 251 0.0 0.0 0.00 0.00 0.00 64 1020.9
20260905020159 84 251 0.0 0.0 0.00 0.00 0.00 65 1021.1
20260905015657 84 251 0.0 0.0 0.00 0.00 0.00 64 1021.0
20260905015157 84 251 0.0 0.0 0.00 0.00 0.00 66 1020.9
20260905014655 84 251 0.0 0.0 0.00 0.00 0.00 66 1021.0
20260905014151 84 251 0.0 0.0 0.00 0.00 0.00 66 1020.8
20260905013648 84 251 0.0 0.0 0.00 0.00 0.00 66 1020.8
20260905013143 84 251 0.0 0.0 0.00 0.00 0.00 66 1020.8
20260905012638 84 251 0.0 0.0 0.00 0.00 0.00 65 1020.7
20260905012134 85 251 0.0 0.0 0.00 0.00 0.00 65 1020.7
20260905011630 85 251 0.0 0.0 0.00 0.00 0.00 64 1020.6
20260905011126 85 251 0.0 0.0 0.00 0.00 0.00 65 1020.6
20260905010620 85 251 0.0 0.0 0.00 0.00 0.00 63 1020.6
20260905010117 85 251 0.0 0.0 0.00 0.00 0.00 63 1020.3
20260905005612 86 251 0.0 0.0 0.00 0.00 0.00 62 1020.4
20260905005107 86 251 0.0 0.0 0.00 0.00 0.00 62 1020.4
20260905004602 86 251 0.0 0.0 0.00 0.00 0.00 62 1020.4
20260905004057 86 251 0.0 0.0 0.00 0.00 0.00 62 1020.2
20260905003553 86 251 0.0 0.0 0.00 0.00 0.00 61 1020.3
20260905003048 87 251 0.0 0.0 0.00 0.00 0.00 60 1020.2
20260905002544 87 251 0.0 0.0 0.00 0.00 0.00 60 1020.1
20260905002038 87 251 0.0 0.0 0.00 0.00 0.00 59 1020.2
20260905001532 88 251 0.0 0.0 0.00 0.00 0.00 59 1020.1
20260905001027 88 251 0.0 0.0 0.00 0.00 0.00 58 1020.0
20260905000522 89 251 0.0 0.0 0.00 0.00 0.00 56 1019.8
20260905000019 90 251 0.0 0.0 0.00 0.00 0.00 54 1019.8
20260904235513 90 251 0.0 0.0 0.00 0.00 0.00 54 1019.8
20260904235013 91 251 0.0 0.0 0.00 0.00 0.00 53 1019.9
20260904234513 91 251 0.0 0.0 0.00 0.00 0.00 52 1019.9
20260904234009 91 251 0.0 0.0 0.00 0.00 0.00 52 1019.7
20260904233504 91 192 0.0 0.0 0.00 0.00 0.00 52 1019.9
20260904233000 92 253 0.0 0.0 0.00 0.00 0.00 51 1019.9
20260904232456 92 289 0.0 0.0 0.00 0.00 0.00 50 1019.7
20260904231953 93 157 0.0 0.0 0.00 0.00 0.00 50 1019.5
20260904231448 93 268 0.0 0.0 0.00 0.00 0.00 49 1019.9
20260904230943 93 251 0.0 0.0 0.00 0.00 0.00 48 1019.6
20260904230442 93 225 0.0 0.0 0.00 0.00 0.00 48 1019.7
20260904225937 94 208 0.0 0.0 0.00 0.00 0.00 48 1019.8
20260904225434 94 254 0.0 0.0 0.00 0.00 0.00 47 1019.7
20260904224929 94 255 0.0 0.0 0.00 0.00 0.00 48 1019.7
20260904224425 94 250 0.0 0.0 0.00 0.00 0.00 47 1019.6
20260904223924 94 257 0.0 0.0 0.00 0.00 0.00 47 1019.5
20260904223423 94 152 3.0 5.0 0.00 0.00 0.00 47 1019.5
20260904222920 95 130 0.0 0.0 0.00 0.00 0.00 47 1019.4
20260904222415 94 252 0.0 0.0 0.00 0.00 0.00 47 1019.4
20260904221915 95 281 0.0 0.0 0.00 0.00 0.00 46 1019.7
20260904221409 94 117 0.0 0.0 0.00 0.00 0.00 47 1019.5
20260904220905 94 256 0.0 0.0 0.00 0.00 0.00 47 1019.4
20260904220404 94 271 0.0 0.0 0.00 0.00 0.00 47 1019.5
20260904215900 95 176 0.0 0.0 0.00 0.00 0.00 47 1019.6
20260904215354 95 130 0.0 0.0 0.00 0.00 0.00 46 1019.7
20260904214850 96 228 0.0 0.0 0.00 0.00 0.00 45 1019.6
20260904214346 96 126 0.0 0.0 0.00 0.00 0.00 44 1019.4
20260904213844 96 215 0.0 0.0 0.00 0.00 0.00 44 1019.4
20260904213339 96 192 0.0 0.0 0.00 0.00 0.00 45 1019.8
20260904212836 95 235 0.0 0.0 0.00 0.00 0.00 45 1019.8
20260904212335 95 252 0.0 0.0 0.00 0.00 0.00 45 1019.8
20260904211831 96 272 0.0 0.0 0.00 0.00 0.00 45 1019.7
20260904211326 96 74 0.0 0.0 0.00 0.00 0.00 45 1019.9
20260904210821 96 294 0.0 0.0 0.00 0.00 0.00 45 1019.9
20260904210320 96 253 0.0 0.0 0.00 0.00 0.00 45 1019.6
20260904205817 96 275 0.0 0.0 0.00 0.00 0.00 45 1019.6
20260904205312 95 275 0.0 0.0 0.00 0.00 0.00 45 1019.8
20260904204809 95 286 0.0 0.0 0.00 0.00 0.00 45 1019.7
20260904204304 96 290 0.0 0.0 0.00 0.00 0.00 43 1019.8
20260904203801 96 274 1.0 2.0 0.00 0.00 0.00 44 1019.9
20260904203256 96 321 0.0 0.0 0.00 0.00 0.00 44 1019.9
20260904202752 96 296 0.0 0.0 0.00 0.00 0.00 44 1020.3
20260904202248 96 182 5.0 5.0 0.00 0.00 0.00 44 1020.1
20260904201744 96 155 2.0 3.0 0.00 0.00 0.00 44 1020.2
20260904201243 96 221 2.0 3.0 0.00 0.00 0.00 43 1020.3
20260904200738 95 228 0.0 0.0 0.00 0.00 0.00 45 1020.3
20260904200233 96 290 2.0 3.0 0.00 0.00 0.00 45 1020.3
20260904195732 95 291 1.0 2.0 0.00 0.00 0.00 45 1020.6
20260904195231 96 243 3.0 3.0 0.00 0.00 0.00 46 1020.5
20260904194726 96 295 1.0 2.0 0.00 0.00 0.00 44 1020.6
20260904194225 95 314 0.0 0.0 0.00 0.00 0.00 44 1020.7
20260904193721 95 303 0.0 0.0 0.00 0.00 0.00 45 1020.8
20260904193217 95 301 0.0 0.0 0.00 0.00 0.00 45 1020.8
20260904192716 95 284 0.0 0.0 0.00 0.00 0.00 48 1020.8
20260904192212 95 253 0.0 0.0 0.00 0.00 0.00 49 1020.9
20260904191709 95 280 0.0 0.0 0.00 0.00 0.00 48 1020.9
20260904191204 93 175 0.0 0.0 0.00 0.00 0.00 50 1021.2
20260904190701 93 287 0.0 0.0 0.00 0.00 0.00 52 1021.2
20260904190157 94 247 0.0 0.0 0.00 0.00 0.00 52 1021.2
20260904185653 93 229 0.0 0.0 0.00 0.00 0.00 52 1021.3
20260904185148 93 305 0.0 0.0 0.00 0.00 0.00 53 1021.3
20260904184646 94 243 0.0 2.0 0.00 0.00 0.00 52 1021.6
20260904184142 94 296 0.0 2.0 0.00 0.00 0.00 51 1021.6
20260904183638 93 349 3.0 3.0 0.00 0.00 0.00 51 1021.5
20260904183137 93 288 1.0 2.0 0.00 0.00 0.00 53 1022.0
20260904182632 93 246 2.0 3.0 0.00 0.00 0.00 52 1021.9
20260904182128 93 305 0.0 0.0 0.00 0.00 0.00 53 1022.1
20260904181623 94 263 0.0 0.0 0.00 0.00 0.00 52 1021.9
20260904181118 94 313 0.0 0.0 0.00 0.00 0.00 53 1022.0
20260904180613 94 284 0.0 0.0 0.00 0.00 0.00 52 1022.2
20260904180109 94 176 0.0 0.0 0.00 0.00 0.00 52 1022.1
20260904175607 95 317 0.0 0.0 0.00 0.00 0.00 51 1022.0
20260904175106 95 219 0.0 0.0 0.00 0.00 0.00 51 1022.2
20260904174601 94 241 0.0 0.0 0.00 0.00 0.00 51 1022.2
20260904174057 92 275 0.0 0.0 0.00 0.00 0.00 55 1022.0
20260904173557 91 297 0.0 0.0 0.00 0.00 0.00 56 1022.3
20260904173053 92 303 0.0 0.0 0.00 0.00 0.00 55 1022.5
20260904172549 94 302 1.0 2.0 0.00 0.00 0.00 53 1022.6
20260904172048 94 289 0.0 0.0 0.00 0.00 0.00 53 1022.4
20260904171543 95 303 0.0 0.0 0.00 0.00 0.00 52 1022.5
20260904171039 94 187 0.0 0.0 0.00 0.00 0.00 52 1022.6
20260904170534 94 284 0.0 0.0 0.00 0.00 0.00 53 1022.9
20260904170030 93 340 2.0 3.0 0.00 0.00 0.00 54 1022.7
20260904165529 93 187 3.0 3.0 0.00 0.00 0.00 55 1022.6
20260904165028 93 268 0.0 0.0 0.00 0.00 0.00 56 1022.7
20260904164524 93 330 0.0 3.0 0.00 0.00 0.00 56 1023.0
20260904164020 92 265 0.0 0.0 0.00 0.00 0.00 56 1023.0
20260904163519 92 142 5.0 9.0 0.00 0.00 0.00 57 1023.1
20260904163014 93 332 0.0 0.0 0.00 0.00 0.00 58 1023.0
20260904162509 91 201 0.0 0.0 0.00 0.00 0.00 57 1023.4
20260904162005 91 137 0.0 2.0 0.00 0.00 0.00 59 1023.0
20260904161459 92 213 0.0 0.0 0.00 0.00 0.00 58 1023.2
20260904160955 91 233 0.0 0.0 0.00 0.00 0.00 61 1023.0
20260904160449 90 319 0.0 0.0 0.00 0.00 0.00 60 1023.3
20260904155944 91 300 0.0 0.0 0.00 0.00 0.00 59 1023.5
20260904155439 90 310 0.0 0.0 0.00 0.00 0.00 61 1023.5
20260904154938 89 306 0.0 0.0 0.00 0.00 0.00 63 1023.4
20260904154432 89 297 0.0 0.0 0.00 0.00 0.00 64 1023.2
20260904153927 88 205 0.0 0.0 0.00 0.00 0.00 64 1023.5
20260904153422 88 306 0.0 0.0 0.00 0.00 0.00 65 1023.5
20260904152919 89 304 0.0 0.0 0.00 0.00 0.00 64 1023.6
20260904152414 89 260 0.0 0.0 0.00 0.00 0.00 64 1023.5
20260904151913 89 208 2.0 2.0 0.00 0.00 0.00 64 1023.2
20260904151409 88 142 0.0 0.0 0.00 0.00 0.00 63 1023.6
20260904150904 87 264 0.0 0.0 0.00 0.00 0.00 66 1023.6
20260904150358 87 244 0.0 0.0 0.00 0.00 0.00 66 1023.7
20260904145856 87 252 0.0 0.0 0.00 0.00 0.00 65 1023.3
20260904145353 87 268 0.0 0.0 0.00 0.00 0.00 66 1023.1
20260904144848 86 172 0.0 0.0 0.00 0.00 0.00 67 1023.3
20260904144344 86 173 0.0 0.0 0.00 0.00 0.00 68 1023.3
20260904143839 85 329 0.0 0.0 0.00 0.00 0.00 70 1023.2
20260904143336 85 272 0.0 0.0 0.00 0.00 0.00 72 1023.2
20260904142832 84 264 0.0 0.0 0.00 0.00 0.00 72 1023.3
20260904142327 84 239 0.0 0.0 0.00 0.00 0.00 72 1023.5
20260904141822 84 247 0.0 0.0 0.00 0.00 0.00 73 1023.3
20260904141317 83 274 0.0 0.0 0.00 0.00 0.00 75 1023.2
20260904140813 83 247 0.0 0.0 0.00 0.00 0.00 74 1023.3
20260904140308 82 220 0.0 0.0 0.00 0.00 0.00 74 1023.4
20260904135807 82 245 0.0 0.0 0.00 0.00 0.00 76 1023.2
20260904135305 82 202 0.0 0.0 0.00 0.00 0.00 75 1023.2
20260904134759 82 248 0.0 0.0 0.00 0.00 0.00 75 1023.2
20260904134258 81 286 0.0 0.0 0.00 0.00 0.00 77 1023.2
20260904133753 81 243 0.0 0.0 0.00 0.00 0.00 77 1023.1
20260904133249 80 255 0.0 0.0 0.00 0.00 0.00 78 1023.0
20260904132748 80 255 0.0 0.0 0.00 0.00 0.00 78 1023.0
20260904132244 80 254 0.0 0.0 0.00 0.00 0.00 79 1022.9
20260904131742 80 258 0.0 0.0 0.00 0.00 0.00 80 1023.0
20260904131239 80 254 0.0 0.0 0.00 0.00 0.00 82 1023.1
20260904130738 79 246 0.0 0.0 0.00 0.00 0.00 83 1023.2
20260904130238 79 246 0.0 0.0 0.00 0.00 0.00 84 1023.0
20260904125734 78 272 0.0 0.0 0.00 0.00 0.00 84 1023.1
20260904125229 78 272 0.0 0.0 0.00 0.00 0.00 85 1023.1
20260904124723 77 272 0.0 0.0 0.00 0.00 0.00 85 1023.0
20260904124220 77 272 0.0 0.0 0.00 0.00 0.00 85 1023.1
20260904123714 77 272 0.0 0.0 0.00 0.00 0.00 86 1023.2
20260904123210 76 272 0.0 0.0 0.00 0.00 0.00 86 1023.0
20260904122710 76 272 0.0 0.0 0.00 0.00 0.00 86 1022.9
20260904122205 76 272 0.0 0.0 0.00 0.00 0.00 86 1023.1
20260904121700 75 257 0.0 0.0 0.00 0.00 0.00 86 1023.2
20260904121155 75 257 0.0 0.0 0.00 0.00 0.00 86 1022.7
20260904120652 75 257 0.0 0.0 0.00 0.00 0.00 86 1023.2